Temperature
10 9 9 9 9 9 9 9 8 8 8 8 9 9 9 9 9 9 9 9 9 9 9 9 8 8 7 6 6 6 6 7 7 7 7 6 6 6 6 6 6 5 5
9 9 9 9 8 8 8 8 8 7 8 8 8 8 8 8 9 9 9 9 9 9 9 9 9 8 8 7 6 6 6 6 6 6 6 6 6 6 6 6 5 5 5
9 8 8 8 8 8 8 8 7 7 7 7 8 8 8 8 8 8 8 9 9 9 9 9 9 9 8 8 7 7 6 6 6 6 6 6 6 6 5 5 5 5 5
8 8 8 8 8 8 8 7 7 7 7 7 7 7 7 7 8 8 8 8 9 9 9 9 9 9 9 8 8 7 7 6 6 6 6 6 6 5 5 5 5 5 5
8 8 8 8 7 7 8 7 7 7 6 6 6 6 6 7 7 8 8 8 8 9 9 9 9 9 9 9 8 8 7 6 6 6 5 5 5 5 5 5 5 5 4
9 8 8 8 7 7 8 7 7 7 7 6 6 6 6 6 6 7 8 8 8 8 9 9 9 9 9 9 8 8 7 6 6 6 5 5 5 5 5 5 5 5 4
9 9 9 8 8 8 8 7 7 7 7 6 6 6 6 6 6 7 7 8 8 8 8 8 8 8 9 9 8 8 7 6 6 5 5 5 5 5 5 4 4 4 4
10 9 9 9 8 8 8 8 7 7 7 6 5 4 4 6 6 5 6 6 7 7 7 7 7 7 7 7 8 8 7 7 6 5 5 4 4 4 4 4 4 4 4
10 9 9 9 8 8 8 8 7 6 6 6 5 4 3 5 5 5 4 4 5 5 5 6 6 6 6 6 6 7 7 6 6 5 4 4 4 4 4 4 4 4 4
9 9 8 8 8 7 7 7 7 6 6 6 5 4 4 3 2 3 4 4 4 4 4 4 5 5 6 6 6 6 6 6 5 5 4 4 4 4 4 4 4 4 4
8 8 8 7 7 7 7 7 6 6 6 5 5 4 3 3 2 1 2 3 4 3 3 3 3 3 5 5 5 5 5 5 5 4 4 3 3 3 4 4 4 4 4
7 7 7 7 6 6 6 6 6 6 6 5 5 5 4 2 2 2 2 2 3 3 3 3 2 2 3 4 5 5 5 5 4 4 3 3 3 3 3 3 4 4 4
7 6 6 6 6 6 6 6 5 5 5 5 4 4 3 3 2 2 1 1 2 2 2 2 2 2 2 2 3 4 4 4 3 3 3 3 2 2 2 2 3 3 4
6 6 6 6 6 5 5 5 5 5 4 4 4 3 3 2 2 1 0 -0 0 1 2 2 2 2 1 1 1 1 2 2 2 2 2 2 1 1 1 1 2 2 3
6 6 5 5 5 5 5 4 4 4 3 3 2 2 2 1 1 0 -0 -1 -1 -1 0 2 2 2 1 0 0 -0 -0 0 1 1 1 0 -0 -0 -0 0 1 1 1
5 5 5 5 5 4 4 3 3 3 2 2 1 1 1 0 -0 -1 -1 -2 -2 -2 -2 -1 -0 -0 -0 -1 -1 -1 -2 -1 -1 -1 -1 -1 -1 -1 -1 -1 -0 0 0
5 5 4 4 4 4 3 3 2 1 1 1 0 -0 -1 -1 -1 -2 -2 -2 -2 -3 -3 -2 -1 -1 -2 -2 -2 -3 -3 -2 -2 -2 -2 -2 -2 -2 -2 -1 -1 -1 -0
4 4 4 3 3 3 2 2 1 1 -0 -1 -1 -1 -2 -2 -2 -3 -3 -3 -3 -3 -3 -3 -2 -2 -2 -3 -3 -3 -3 -3 -3 -3 -3 -3 -3 -3 -2 -2 -2 -1 -1
4 3 3 3 2 2 2 1 0 -0 -1 -1 -2 -2 -2 -3 -3 -3 -3 -3 -3 -3 -3 -3 -3 -3 -3 -3 -4 -4 -4 -4 -4 -3 -4 -4 -3 -3 -3 -3 -2 -2 -2
3 3 2 2 2 1 1 1 -0 -1 -1 -2 -2 -3 -3 -4 -4 -4 -4 -4 -4 -4 -4 -4 -4 -4 -4 -4 -4 -4 -4 -4 -4 -4 -4 -4 -4 -4 -4 -3 -3 -3 -2
2 2 2 1 1 1 0 -0 -1 -2 -3 -3 -4 -4 -4 -4 -4 -4 -4 -4 -4 -4 -4 -4 -4 -4 -4 -4 -4 -4 -5 -4 -5 -5 -5 -5 -5 -5 -4 -4 -4 -3 -3
2 1 1 0 -0 -1 -1 -2 -3 -4 -4 -4 -4 -4 -4 -4 -4 -4 -4 -4 -4 -3 -3 -3 -3 -4 -4 -4 -4 -4 -5 -5 -5 -5 -5 -5 -5 -5 -5 -5 -5 -4 -4
0 -0 -1 -1 -2 -2 -2 -3 -4 -5 -5 -5 -5 -5 -5 -5 -5 -4 -4 -4 -4 -4 -4 -4 -4 -4 -4 -4 -4 -4 -5 -5 -5 -5 -5 -6 -6 -6 -6 -6 -6 -5 -5
-1 -2 -2 -2 -3 -3 -3 -4 -5 -5 -5 -5 -5 -5 -5 -5 -5 -4 -4 -4 -4 -4 -4 -4 -4 -4 -4 -4 -4 -4 -4 -5 -5 -5 -6 -6 -6 -6 -6 -6 -6 -6 -6
-2 -2 -3 -3 -4 -3 -4 -5 -5 -6 -5 -5 -5 -5 -5 -5 -4 -4 -4 -4 -4 -4 -4 -4 -4 -4 -4 -4 -4 -4 -5 -5 -6 -6 -6 -6 -6 -6 -6 -6 -6 -6 -6
-3 -3 -4 -4 -5 -4 -5 -6 -6 -6 -6 -5 -5 -5 -5 -4 -4 -4 -4 -4 -4 -4 -4 -4 -4 -4 -5 -5 -5 -5 -5 -5 -6 -6 -6 -6 -6 -6 -7 -6 -6 -6 -6
Wind_Speed
10 10 10 10 10 10 10 10 11 11 12 12 12 13 13 14 14 13 12 15 18 19 20 20 20 20 20 19 19 18 18 17 16 16 15 14 14 13 12 12 11 11 10
11 10 11 11 11 12 12 12 13 12 12 12 13 15 15 16 16 16 16 15 19 21 23 23 23 23 23 23 22 22 21 21 20 19 18 18 17 16 15 15 14 14 13
14 12 11 11 12 13 13 13 14 13 12 12 14 16 16 17 17 18 18 17 17 20 24 26 26 26 26 26 26 25 24 24 23 22 22 21 20 19 18 18 17 16 15
16 14 12 12 13 12 12 11 11 11 11 12 12 12 13 15 18 19 19 19 18 18 20 25 28 29 30 30 29 28 28 27 26 26 25 24 23 22 22 21 20 19 18
16 15 14 14 14 12 11 11 11 11 12 13 13 13 13 13 16 18 19 21 21 21 20 22 27 31 32 33 32 32 31 30 30 29 28 27 26 25 25 24 23 21 21
14 15 14 15 14 10 11 11 12 12 12 12 13 14 15 15 15 16 18 20 21 23 23 23 22 23 30 34 35 35 34 34 33 32 31 31 30 29 28 26 25 24 23
13 13 12 13 12 11 12 13 12 13 12 10 10 12 14 17 17 16 15 15 17 20 21 22 21 20 19 26 32 36 37 37 36 35 34 33 33 32 31 29 28 27 26
12 12 13 11 11 10 12 12 12 10 9 8 7 9 9 11 12 12 12 13 14 15 16 20 21 20 19 18 20 28 33 37 38 38 37 36 35 35 33 32 31 30 28
10 11 12 12 10 10 10 12 11 13 11 10 9 8 8 8 9 8 11 12 13 13 14 16 19 21 21 20 19 23 29 32 35 37 38 38 37 37 36 35 33 32 31
7 9 10 11 11 10 11 12 11 11 12 11 10 11 13 11 10 9 9 11 13 14 16 15 16 19 21 21 22 25 27 29 31 34 36 38 38 38 38 37 35 34 33
5 6 8 9 9 9 11 12 12 12 11 13 11 11 12 13 15 12 16 16 15 14 15 16 15 16 20 22 22 25 29 31 32 33 34 36 38 39 39 38 37 36 35
4 5 6 8 9 9 10 11 12 14 13 15 13 13 13 12 12 14 16 18 18 16 17 15 15 15 18 21 24 28 30 31 32 32 33 35 36 38 39 39 38 37 36
6 7 6 8 8 9 11 11 12 13 15 16 16 14 14 15 15 16 17 19 21 19 19 17 16 16 17 20 21 26 29 32 32 32 33 34 35 36 37 38 38 37 37
7 9 9 10 11 12 12 12 12 14 14 16 17 18 15 15 15 16 17 17 20 21 20 22 16 17 16 18 20 23 23 28 31 32 32 33 34 35 36 37 37 37 36
8 10 11 12 12 13 13 14 13 15 15 16 17 18 17 16 16 16 16 16 17 20 23 23 18 17 15 16 19 20 22 25 28 30 31 32 32 34 35 36 36 36 36
10 12 13 13 14 14 15 15 15 16 17 17 15 18 18 17 16 16 16 16 16 18 21 21 18 17 16 14 19 21 22 26 28 29 30 30 31 32 34 35 35 36 36
12 13 14 15 15 16 16 16 17 18 19 19 18 19 20 20 17 16 16 16 16 16 20 24 20 18 19 19 17 18 20 20 19 26 28 29 30 31 32 33 34 35 35
13 14 15 16 16 17 17 18 19 19 20 20 20 20 20 17 20 18 16 18 17 17 19 25 23 18 19 18 17 18 17 16 18 22 25 27 29 30 31 32 33 34 34
15 15 15 16 17 17 17 18 19 20 20 20 20 19 20 20 21 18 19 18 16 16 17 20 22 18 16 14 15 16 19 17 18 20 23 26 28 29 30 30 31 32 33
15 16 17 17 17 15 15 17 18 19 19 20 20 21 21 20 21 21 18 19 17 17 17 18 19 17 16 15 13 14 15 15 15 15 17 19 22 26 29 30 30 30 29
16 16 17 18 18 14 12 13 14 17 18 20 21 20 21 24 26 23 18 16 16 16 16 16 17 16 15 13 12 13 14 14 15 13 13 13 14 14 16 23 27 28 27
17 17 17 18 19 16 20 25 22 20 19 19 18 18 19 21 25 28 30 29 25 18 16 16 16 16 17 16 13 12 13 13 12 9 12 13 12 13 13 12 18 23 25
18 18 18 19 20 21 24 26 27 22 21 20 20 18 16 17 22 16 21 26 26 29 27 19 18 18 17 15 14 15 14 14 14 10 7 10 11 12 11 13 20 22 24
18 18 19 20 20 21 25 26 26 21 19 19 19 19 19 19 18 17 15 16 17 18 21 17 14 15 16 15 13 13 13 14 13 10 9 8 9 10 10 11 17 21 23
18 18 19 20 21 22 23 24 25 17 16 19 18 18 19 19 23 26 19 17 17 16 19 24 25 23 24 24 18 11 11 11 11 10 10 8 8 9 9 10 12 19 21
18 19 19 19 20 21 23 24 25 15 16 16 16 16 21 22 24 26 18 16 17 15 14 14 16 18 17 16 19 11 10 11 9 8 10 9 7 6 6 9 10 10 13
Wind_Direction
230 234 240 241 244 247 247 250 255 260 260 260 258 260 263 262 261 260 260 255 255 258 262 264 265 264 263 261 258 256 255 254 254 254 255 256 257 258 260 262 262 263 266
237 239 246 246 250 250 253 256 260 264 265 264 264 262 262 263 261 259 258 257 252 252 254 258 260 261 261 260 258 256 253 251 250 250 251 251 252 253 255 256 257 257 259
241 244 251 252 253 254 256 258 263 265 266 267 266 266 264 263 261 260 259 257 255 250 249 252 254 256 257 258 257 256 254 251 249 248 247 248 248 249 250 251 252 253 254
244 249 253 256 258 258 256 257 261 262 263 265 268 269 265 262 262 262 260 256 254 254 250 248 250 252 253 254 255 254 253 251 249 247 245 245 244 245 246 247 248 249 250
247 249 255 260 262 257 256 259 260 261 267 270 270 271 269 266 264 262 259 257 253 251 252 252 249 250 250 251 252 252 251 250 249 247 244 243 242 242 243 244 245 245 247
248 250 255 259 261 256 256 257 260 262 264 272 277 275 271 267 262 259 259 258 254 250 249 250 251 250 248 249 249 249 249 249 247 246 245 243 241 240 240 241 242 243 244
252 249 254 260 256 253 257 262 263 265 265 267 275 278 272 262 256 254 253 254 253 251 249 248 247 248 249 248 248 248 248 248 247 246 245 243 242 240 239 239 239 240 241
255 252 254 258 258 257 260 261 260 260 265 255 259 285 289 282 255 245 249 249 252 252 249 246 245 244 245 246 245 246 248 249 248 247 245 243 242 241 239 238 238 238 239
263 256 257 260 260 258 260 261 258 252 256 259 240 250 273 280 302 261 243 247 251 253 253 250 247 246 244 244 245 244 245 247 249 249 247 245 243 241 240 238 237 237 237
275 268 264 263 263 259 259 260 257 254 254 259 256 240 246 263 276 287 266 253 254 257 259 258 254 251 247 245 243 243 244 245 247 249 249 248 246 243 241 239 237 237 236
288 277 271 266 263 261 260 261 260 254 249 250 254 254 251 253 252 257 276 278 272 262 258 258 258 255 252 248 247 244 244 246 248 249 249 248 247 245 243 240 238 237 236
302 288 278 271 266 263 263 262 260 257 253 252 252 252 253 252 253 255 268 275 276 274 269 262 257 255 254 252 250 248 247 248 249 249 249 248 247 246 244 242 240 238 236
308 307 296 285 278 272 269 267 264 262 258 256 254 254 253 253 257 261 268 276 279 279 275 269 261 257 255 254 255 252 251 251 251 250 249 248 247 246 245 244 243 241 239
305 306 299 291 287 283 278 272 269 266 264 262 260 259 258 258 257 256 261 271 279 281 276 270 264 256 254 255 256 254 256 254 253 252 250 247 246 245 245 244 244 243 242
301 299 297 293 290 287 283 280 273 273 270 267 266 264 261 261 260 259 259 258 265 278 280 278 276 270 261 257 258 258 258 257 255 253 252 249 247 245 244 243 242 242 242
300 297 296 294 292 290 287 283 280 278 277 273 271 269 267 267 265 262 260 258 255 260 273 277 276 275 273 263 261 261 262 262 259 256 254 251 249 246 244 243 241 240 239
299 297 296 295 293 291 290 287 283 283 280 278 275 271 269 269 269 267 264 260 257 254 263 274 275 274 270 266 262 260 262 263 261 255 253 252 250 247 245 243 242 240 239
299 297 295 292 291 290 289 288 288 286 283 281 279 276 274 273 270 268 265 263 260 257 258 269 275 276 272 268 263 260 261 262 262 260 255 252 251 249 246 244 242 240 239
298 296 294 292 291 289 288 287 287 286 285 283 281 279 276 274 272 269 267 265 263 261 258 263 271 275 273 268 263 258 257 258 261 260 257 253 251 250 248 246 243 241 238
297 296 295 292 290 286 282 282 283 283 283 281 279 277 275 272 270 270 269 267 266 264 261 261 267 270 268 264 257 255 256 253 254 255 254 252 250 249 247 246 243 241 240
295 295 293 292 291 287 276 274 276 277 277 278 277 275 273 270 268 268 266 264 260 260 260 260 263 265 263 258 250 247 251 255 255 251 250 248 247 244 242 243 243 241 240
297 295 293 292 291 289 287 289 290 288 286 283 282 279 276 274 273 272 271 271 268 263 261 261 264 263 263 259 252 245 246 249 253 242 240 244 240 242 240 238 238 239 240
298 297 295 293 292 292 293 294 295 294 290 288 287 285 283 280 279 274 275 277 277 275 272 269 268 267 268 263 255 247 240 240 245 242 233 243 238 239 239 238 240 239 240
299 298 297 296 295 294 296 298 300 297 291 287 285 284 284 283 280 278 270 268 267 267 267 269 264 265 267 266 254 247 246 245 248 241 219 237 238 237 235 235 238 238 239
300 299 298 297 296 297 298 299 299 296 291 289 287 285 283 282 281 282 280 274 273 269 268 266 263 262 262 262 253 240 233 234 240 231 212 220 236 234 232 231 230 231 234
299 299 297 297 296 296 297 299 300 296 293 292 289 285 283 282 283 284 281 278 277 276 271 268 266 266 267 268 263 245 231 230 233 231 204 203 220 217 231 230 226 223 228
Height
1567 1567 1567 1567 1566 1566 1565 1564 1563 1562 1561 1559 1558 1557 1556 1554 1553 1551 1550 1549 1548 1547 1546 1545 1544 1544 1544 1543 1543 1542 1541 1540 1539 1539 1538 1537 1537 1536 1535 1535 1534 1534 1533
1564 1564 1563 1563 1563 1562 1561 1560 1559 1558 1556 1555 1553 1552 1550 1549 1547 1546 1544 1543 1542 1541 1540 1540 1539 1538 1538 1538 1538 1537 1537 1536 1535 1535 1534 1534 1533 1532 1532 1531 1531 1531 1530
1560 1560 1559 1559 1558 1557 1557 1555 1554 1553 1551 1549 1547 1546 1544 1543 1541 1539 1538 1536 1535 1534 1534 1533 1532 1532 1531 1531 1531 1531 1531 1530 1530 1529 1529 1529 1528 1528 1528 1527 1527 1527 1527
1555 1555 1555 1554 1554 1552 1551 1550 1549 1547 1545 1543 1541 1539 1537 1534 1533 1532 1530 1528 1527 1526 1525 1525 1525 1524 1524 1523 1523 1523 1523 1523 1523 1523 1523 1523 1522 1522 1522 1522 1523 1523 1522
1550 1550 1549 1549 1548 1546 1545 1544 1543 1541 1539 1537 1534 1531 1529 1526 1524 1523 1521 1520 1518 1516 1516 1516 1516 1515 1515 1514 1514 1514 1515 1515 1515 1515 1516 1516 1516 1516 1516 1517 1517 1517 1517
1544 1544 1543 1543 1542 1540 1539 1538 1536 1535 1532 1530 1528 1524 1520 1518 1515 1513 1512 1511 1509 1507 1506 1506 1505 1504 1504 1504 1504 1504 1504 1505 1506 1506 1507 1508 1508 1508 1509 1510 1510 1511 1511
1539 1539 1538 1537 1536 1534 1533 1532 1530 1528 1526 1524 1520 1516 1512 1510 1506 1503 1502 1501 1500 1499 1497 1495 1494 1493 1491 1492 1492 1492 1493 1494 1495 1496 1497 1498 1499 1500 1501 1502 1502 1503 1504
1536 1534 1533 1532 1531 1529 1527 1526 1524 1522 1519 1518 1515 1511 1506 1503 1499 1495 1493 1492 1491 1489 1487 1486 1484 1482 1481 1480 1480 1481 1481 1482 1484 1485 1487 1488 1489 1491 1492 1493 1494 1495 1497
1532 1531 1529 1528 1526 1524 1522 1521 1518 1516 1513 1512 1509 1507 1504 1498 1494 1489 1485 1483 1481 1479 1478 1476 1474 1472 1471 1469 1468 1469 1470 1470 1471 1472 1475 1477 1478 1480 1482 1483 1485 1487 1488
1529 1527 1525 1524 1522 1519 1517 1515 1513 1510 1508 1505 1503 1500 1497 1494 1490 1482 1480 1477 1472 1470 1468 1466 1463 1461 1460 1458 1457 1457 1458 1458 1459 1459 1461 1464 1467 1469 1471 1473 1475 1477 1479
1526 1524 1522 1520 1517 1515 1512 1510 1507 1505 1501 1499 1496 1493 1490 1486 1482 1477 1469 1469 1467 1463 1460 1456 1453 1451 1449 1447 1445 1445 1446 1446 1446 1447 1448 1450 1453 1457 1460 1462 1465 1467 1469
1522 1520 1517 1515 1512 1510 1507 1504 1501 1498 1495 1492 1489 1485 1482 1479 1475 1471 1463 1459 1456 1454 1452 1449 1444 1441 1438 1436 1434 1434 1434 1434 1434 1434 1435 1437 1440 1443 1447 1451 1454 1457 1459
1519 1516 1513 1510 1507 1504 1501 1498 1494 1491 1488 1484 1481 1477 1473 1470 1467 1463 1458 1451 1446 1443 1442 1439 1436 1432 1429 1426 1423 1423 1422 1422 1422 1422 1423 1424 1426 1430 1434 1438 1442 1445 1449
1514 1511 1508 1505 1501 1498 1494 1490 1486 1483 1479 1475 1471 1468 1464 1460 1457 1453 1450 1445 1437 1431 1429 1427 1426 1423 1420 1417 1414 1412 1411 1411 1411 1411 1411 1412 1414 1417 1420 1425 1429 1433 1437
1509 1506 1502 1498 1495 1491 1487 1482 1477 1474 1470 1465 1462 1458 1454 1450 1447 1443 1440 1437 1433 1423 1414 1414 1416 1415 1412 1408 1405 1404 1401 1400 1399 1399 1400 1401 1403 1405 1408 1412 1416 1420 1425
1504 1500 1496 1491 1487 1483 1478 1473 1468 1464 1460 1455 1451 1447 1443 1440 1437 1433 1430 1427 1423 1418 1407 1398 1402 1403 1402 1398 1396 1395 1392 1391 1389 1388 1389 1390 1391 1394 1397 1400 1404 1408 1412
1497 1493 1488 1483 1479 1474 1470 1464 1459 1454 1449 1445 1441 1436 1432 1429 1425 1422 1419 1416 1412 1409 1400 1388 1389 1392 1391 1389 1387 1385 1383 1382 1379 1378 1378 1379 1380 1382 1385 1389 1392 1397 1401
1491 1486 1480 1475 1470 1465 1460 1455 1449 1444 1439 1434 1430 1425 1421 1418 1414 1411 1408 1404 1401 1399 1394 1383 1377 1381 1381 1379 1377 1376 1374 1372 1370 1368 1368 1368 1370 1372 1374 1378 1381 1385 1389
1483 1478 1472 1466 1461 1456 1450 1445 1439 1434 1428 1423 1419 1414 1410 1407 1402 1400 1397 1393 1390 1388 1384 1377 1369 1370 1370 1369 1367 1365 1364 1362 1360 1359 1358 1358 1359 1361 1364 1366 1370 1374 1378
1475 1470 1464 1458 1452 1446 1440 1435 1429 1422 1417 1411 1407 1402 1398 1395 1391 1388 1385 1382 1380 1377 1373 1369 1362 1360 1360 1359 1358 1355 1353 1352 1350 1350 1349 1348 1349 1350 1352 1356 1359 1363 1367
1467 1461 1454 1448 1442 1436 1430 1424 1417 1411 1405 1399 1395 1391 1387 1384 1380 1378 1375 1371 1369 1366 1362 1359 1354 1351 1349 1349 1348 1346 1344 1343 1342 1342 1340 1340 1340 1341 1342 1345 1348 1351 1355
1458 1452 1445 1438 1432 1426 1420 1414 1408 1401 1395 1390 1384 1380 1377 1373 1369 1367 1364 1362 1359 1356 1352 1349 1345 1342 1339 1340 1338 1337 1336 1335 1334 1334 1333 1332 1333 1332 1333 1335 1337 1341 1345
1449 1443 1436 1429 1422 1416 1410 1404 1398 1393 1386 1381 1376 1371 1367 1363 1360 1357 1353 1350 1348 1345 1343 1340 1335 1332 1331 1330 1329 1328 1327 1326 1325 1326 1325 1324 1325 1325 1326 1327 1329 1332 1335
1441 1434 1427 1420 1413 1406 1401 1395 1389 1383 1377 1372 1367 1363 1359 1354 1351 1348 1344 1340 1337 1334 1332 1329 1326 1323 1322 1320 1319 1319 1318 1318 1317 1318 1319 1318 1319 1319 1319 1320 1321 1323 1326
1432 1425 1418 1411 1403 1397 1392 1386 1381 1374 1369 1364 1359 1355 1351 1346 1343 1340 1336 1331 1327 1324 1322 1320 1317 1314 1312 1311 1311 1310 1309 1310 1309 1309 1310 1311 1312 1313 1314 1314 1315 1317 1319
1423 1415 1408 1402 1395 1388 1383 1378 1373 1368 1361 1356 1351 1347 1343 1339 1335 1331 1328 1323 1319 1315 1313 1310 1307 1305 1304 1303 1302 1302 1301 1301 1301 1302 1302 1304 1306 1308 1309 1309 1310 1311 1314